TimeEDT,TemperatureF,Dew PointF,Humidity,Sea Level PressureIn,VisibilityMPH,Wind Direction,Wind SpeedMPH,Gust SpeedMPH,PrecipitationIn,Events,Conditions,WindDirDegrees,DateUTC
12:53 AM,68.0,68.0,100,29.96,6.0,Calm,Calm,-,N/A,,Partly Cloudy,0,2013-06-17 04:53:00
1:44 AM,66.2,66.2,100,29.98,4.0,Calm,Calm,-,N/A,,Partly Cloudy,0,2013-06-17 05:44:00
1:53 AM,66.9,66.9,100,29.96,4.0,Calm,Calm,-,N/A,,Scattered Clouds,0,2013-06-17 05:53:00
1:57 AM,68.0,68.0,100,29.97,2.0,Calm,Calm,-,N/A,,Scattered Clouds,0,2013-06-17 05:57:00
2:04 AM,66.2,66.2,100,29.97,1.5,Calm,Calm,-,N/A,,Mostly Cloudy,0,2013-06-17 06:04:00
2:07 AM,66.2,66.2,100,29.96,2.0,Calm,Calm,-,N/A,,Mostly Cloudy,0,2013-06-17 06:07:00
2:26 AM,68.0,68.0,100,29.96,4.0,Calm,Calm,-,N/A,,Overcast,0,2013-06-17 06:26:00
2:45 AM,66.2,66.2,100,29.97,1.8,Calm,Calm,-,N/A,,Overcast,0,2013-06-17 06:45:00
2:49 AM,66.2,66.2,100,29.97,0.8,Calm,Calm,-,N/A,,Mist,0,2013-06-17 06:49:00
2:53 AM,66.9,66.9,100,29.95,0.5,Calm,Calm,-,N/A,Fog,Fog,0,2013-06-17 06:53:00
3:00 AM,66.2,66.2,100,29.97,0.2,Calm,Calm,-,N/A,Fog,Fog,0,2013-06-17 07:00:00
3:03 AM,66.2,66.2,100,29.97,0.5,Calm,Calm,-,N/A,Fog,Fog,0,2013-06-17 07:03:00
3:18 AM,66.2,66.2,100,29.97,0.2,Calm,Calm,-,N/A,Fog,Fog,0,2013-06-17 07:18:00
3:39 AM,68.0,66.2,94,29.97,0.5,Calm,Calm,-,N/A,Fog,Fog,0,2013-06-17 07:39:00
3:53 AM,66.9,66.9,100,29.95,0.8,Calm,Calm,-,N/A,,Overcast,0,2013-06-17 07:53:00
3:58 AM,66.2,66.2,100,29.97,2.0,Calm,Calm,-,N/A,,Overcast,0,2013-06-17 07:58:00
4:39 AM,66.2,66.2,100,29.96,0.8,Calm,Calm,-,N/A,,Overcast,0,2013-06-17 08:39:00
4:53 AM,66.9,66.9,100,29.95,0.8,Calm,Calm,-,N/A,,Overcast,0,2013-06-17 08:53:00
5:09 AM,66.2,66.2,100,29.97,2.5,Calm,Calm,-,N/A,,Overcast,0,2013-06-17 09:09:00
5:21 AM,66.2,66.2,100,29.97,0.8,South,3.5,-,N/A,,Overcast,170,2013-06-17 09:21:00
5:33 AM,66.2,66.2,100,29.97,0.2,SSE,4.6,-,N/A,Fog,Fog,160,2013-06-17 09:33:00
5:53 AM,66.9,66.9,100,29.95,0.2,Calm,Calm,-,N/A,Fog,Fog,0,2013-06-17 09:53:00
6:25 AM,66.2,66.2,100,29.97,0.2,Calm,Calm,-,0.01,Fog,Fog,0,2013-06-17 10:25:00
6:32 AM,66.2,66.2,100,29.97,0.2,Calm,Calm,-,0.01,Fog,Fog,0,2013-06-17 10:32:00
6:53 AM,66.9,66.9,100,29.95,0.2,Calm,Calm,-,0.01,Fog,Fog,0,2013-06-17 10:53:00
7:21 AM,66.2,66.2,100,29.97,0.5,SSE,4.6,-,N/A,Fog,Fog,150,2013-06-17 11:21:00
7:30 AM,66.2,66.2,100,29.98,0.2,SE,4.6,-,N/A,Fog,Fog,140,2013-06-17 11:30:00
7:37 AM,66.2,66.2,100,29.98,0.2,SSE,3.5,-,N/A,Fog,Fog,150,2013-06-17 11:37:00
7:53 AM,68.0,68.0,100,29.96,0.2,SSE,3.5,-,N/A,Fog,Fog,160,2013-06-17 11:53:00
8:20 AM,69.8,69.8,100,29.98,0.8,SSE,3.5,-,N/A,,Overcast,150,2013-06-17 12:20:00
8:28 AM,69.8,69.8,100,29.98,1.8,Calm,Calm,-,N/A,,Overcast,0,2013-06-17 12:28:00
8:34 AM,69.8,69.8,100,29.98,3.0,Calm,Calm,-,N/A,,Mostly Cloudy,0,2013-06-17 12:34:00
8:49 AM,69.8,69.8,100,29.98,5.0,Calm,Calm,-,N/A,,Scattered Clouds,0,2013-06-17 12:49:00
8:53 AM,70.0,70.0,100,29.96,5.0,Calm,Calm,-,N/A,,Scattered Clouds,0,2013-06-17 12:53:00
9:53 AM,75.9,70.0,82,29.96,10.0,West,4.6,-,N/A,,Scattered Clouds,260,2013-06-17 13:53:00
10:53 AM,78.1,70.0,76,29.96,10.0,Calm,Calm,-,N/A,,Scattered Clouds,0,2013-06-17 14:53:00
11:02 AM,78.8,69.8,74,29.98,10.0,Calm,Calm,-,N/A,,Mostly Cloudy,0,2013-06-17 15:02:00
11:26 AM,78.8,68.0,69,29.97,10.0,Calm,Calm,-,N/A,,Scattered Clouds,0,2013-06-17 15:26:00
11:53 AM,79.0,70.0,74,29.95,10.0,Calm,Calm,-,N/A,,Scattered Clouds,0,2013-06-17 15:53:00
12:53 PM,81.0,69.1,67,29.95,10.0,Variable,3.5,-,N/A,,Mostly Cloudy,0,2013-06-17 16:53:00
1:11 PM,80.6,69.8,70,29.97,10.0,SSW,4.6,-,N/A,,Mostly Cloudy,210,2013-06-17 17:11:00
1:23 PM,82.4,66.2,58,29.97,10.0,Variable,3.5,-,N/A,,Scattered Clouds,0,2013-06-17 17:23:00
1:53 PM,82.9,66.9,58,29.94,10.0,Calm,Calm,-,N/A,,Scattered Clouds,0,2013-06-17 17:53:00
2:53 PM,84.0,68.0,58,29.92,10.0,South,4.6,-,N/A,,Scattered Clouds,180,2013-06-17 18:53:00
3:53 PM,84.9,68.0,57,29.89,10.0,Calm,Calm,-,N/A,,Clear,0,2013-06-17 19:53:00
4:53 PM,84.9,66.0,53,29.86,10.0,Calm,Calm,-,N/A,,Clear,0,2013-06-17 20:53:00
5:53 PM,82.0,69.1,65,29.86,10.0,Calm,Calm,-,N/A,,Partly Cloudy,0,2013-06-17 21:53:00
6:53 PM,79.0,73.9,84,29.88,10.0,Calm,Calm,-,N/A,,Scattered Clouds,0,2013-06-17 22:53:00
7:53 PM,77.0,73.0,88,29.89,9.0,Calm,Calm,-,N/A,,Partly Cloudy,0,2013-06-17 23:53:00
8:53 PM,75.0,72.0,90,29.91,10.0,SSE,21.9,28.8,N/A,Thunderstorm,Mostly Cloudy,160,2013-06-18 00:53:00
9:45 PM,68.0,64.4,88,29.93,10.0,SW,12.7,21.9,N/A,,Partly Cloudy,230,2013-06-18 01:45:00
9:53 PM,68.0,64.0,87,29.91,10.0,WSW,11.5,17.3,N/A,,Clear,250,2013-06-18 01:53:00
10:53 PM,66.9,64.9,93,29.93,10.0,Calm,Calm,-,N/A,,Mostly Cloudy,0,2013-06-18 02:53:00
11:53 PM,66.9,64.0,90,29.90,10.0,Calm,Calm,-,N/A,,Mostly Cloudy,0,2013-06-18 03:53:00